Location: Unnamed
(45.3580°N, 90.2245°W)
Time: 22:58:36
(UTC-06:00)

N. Korean satellite - Visible Passes

Search period start: 25 February 2021 00:00
Search period end: 07 March 2021 00:00
Orbit: 451 x 503 km, 97.2° (Epoch: 25 February)

Date Brightness Start Highest point End Pass type
(mag) Time Alt. Az. Time Alt. Az. Time Alt. Az.
25 Feb 7.3 05:16:23 10° NNE 05:19:49 53° E 05:23:15 10° S visible
26 Feb 8.9 04:50:03 10° NE 04:52:59 25° E 04:55:57 10° SSE visible
27 Feb 9.9 04:24:35 10° ENE 04:26:04 12° E 04:27:36 10° ESE visible
27 Feb 6.8 05:56:16 10° N 05:59:37 44° WNW 06:03:00 10° SW visible
28 Feb 6.6 05:29:25 10° NNE 05:32:56 81° ESE 05:36:29 10° S visible
01 Mar 8.2 05:02:52 10° NNE 05:06:09 36° E 05:09:27 10° SSE visible
02 Mar 9.5 04:36:48 10° NE 04:39:16 18° E 04:41:44 10° SE visible
03 Mar 6.5 05:42:28 10° N 05:45:58 68° WNW 05:49:31 10° SSW visible
04 Mar 7.4 05:15:43 10° NNE 05:19:13 53° E 05:22:43 10° S visible
05 Mar 9.0 04:49:21 10° NE 04:52:21 25° E 04:55:22 10° SSE visible
06 Mar 9.9 04:23:47 10° ENE 04:25:24 13° E 04:27:01 10° ESE visible
06 Mar 6.8 05:55:31 10° N 05:58:55 45° WNW 06:02:23 10° SSW visible
